contact:dominique.lefevre@mio.osupytheas.fr, maurice.libes@osupytheas.fr, didier.mallarino@osupytheas.fr
Project:EMSO http://www.emso-fr.org/EMSO-France
Depth: 2436.0 m
Title:EMSO Ligure Ouest : Data MII capteur MICROCAT
DateTime_Computer,Latitude,Longitude,Temperature,Conductivity,Pressure,DateTime_Instrument
DateTime_Computer,Latitude,Longitude,degC,S m-1,dbar,DateTime_Instrument
2020-02-10T00:02:20Z,42.805,6.029,13.2968,4.59969,2469.947,2020-2-10T02:02:55Z
2020-02-10T00:05:23Z,42.805,6.029,13.2967,4.59969,2469.96,2020-2-10T02:05:58Z
2020-02-10T00:08:26Z,42.805,6.029,13.2967,4.59968,2469.96,2020-2-10T02:09:01Z
2020-02-10T00:11:30Z,42.805,6.029,13.2967,4.59968,2469.96,2020-2-10T02:12:04Z
2020-02-10T00:14:33Z,42.805,6.029,13.2968,4.59973,2469.96,2020-2-10T02:15:07Z
2020-02-10T00:17:36Z,42.805,6.029,13.2965,4.59971,2469.947,2020-2-10T02:18:11Z
2020-02-10T00:20:39Z,42.805,6.029,13.2968,4.59971,2469.914,2020-2-10T02:21:14Z
2020-02-10T00:23:43Z,42.805,6.029,13.2964,4.59969,2469.923,2020-2-10T02:24:17Z
2020-02-10T00:26:46Z,42.805,6.029,13.2965,4.59967,2469.9,2020-2-10T02:27:20Z
2020-02-10T00:29:49Z,42.805,6.029,13.2964,4.59968,2469.937,2020-2-10T02:30:23Z
2020-02-10T00:32:52Z,42.805,6.029,13.2971,4.59968,2469.923,2020-2-10T02:33:27Z
2020-02-10T00:35:55Z,42.805,6.029,13.2964,4.59967,2469.937,2020-2-10T02:36:30Z
2020-02-10T00:38:59Z,42.805,6.029,13.2968,4.59968,2469.914,2020-2-10T02:39:33Z
2020-02-10T00:42:02Z,42.805,6.029,13.2965,4.59966,2469.937,2020-2-10T02:42:36Z
2020-02-10T00:45:05Z,42.805,6.029,13.2965,4.59967,2469.923,2020-2-10T02:45:39Z
2020-02-10T00:48:08Z,42.805,6.029,13.2967,4.59971,2469.923,2020-2-10T02:48:43Z
2020-02-10T00:51:11Z,42.805,6.029,13.2967,4.59969,2469.9,2020-2-10T02:51:46Z
2020-02-10T00:54:15Z,42.805,6.029,13.2964,4.59970,2469.937,2020-2-10T02:54:49Z
2020-02-10T00:57:18Z,42.805,6.029,13.2964,4.59967,2469.947,2020-2-10T02:57:52Z
2020-02-10T01:00:21Z,42.805,6.029,13.2964,4.59967,2469.937,2020-2-10T03:00:55Z
2020-02-10T01:03:24Z,42.805,6.029,13.2966,4.59966,2469.923,2020-2-10T03:03:59Z
2020-02-10T01:06:27Z,42.805,6.029,13.2968,4.59970,2469.914,2020-2-10T03:07:02Z
2020-02-10T01:09:31Z,42.805,6.029,13.2964,4.59968,2469.923,2020-2-10T03:10:05Z
2020-02-10T01:12:34Z,42.805,6.029,13.2966,4.59971,2469.914,2020-2-10T03:13:08Z
2020-02-10T01:15:37Z,42.805,6.029,13.2968,4.59969,2469.9,2020-2-10T03:16:11Z
2020-02-10T01:18:40Z,42.805,6.029,13.2965,4.59968,2469.876,2020-2-10T03:19:15Z
2020-02-10T01:21:43Z,42.805,6.029,13.2968,4.59968,2469.9,2020-2-10T03:22:18Z
2020-02-10T01:24:47Z,42.805,6.029,13.2967,4.59967,2469.9,2020-2-10T03:25:21Z
2020-02-10T01:27:50Z,42.805,6.029,13.2966,4.59967,2469.89,2020-2-10T03:28:24Z
2020-02-10T01:30:53Z,42.805,6.029,13.2968,4.59966,2469.914,2020-2-10T03:31:28Z
2020-02-10T01:33:56Z,42.805,6.029,13.2970,4.59968,2469.876,2020-2-10T03:34:31Z
2020-02-10T01:37:00Z,42.805,6.029,13.2969,4.59968,2469.937,2020-2-10T03:37:34Z
2020-02-10T01:40:03Z,42.805,6.029,13.2967,4.59966,2469.914,2020-2-10T03:40:37Z
2020-02-10T01:43:06Z,42.805,6.029,13.2968,4.59966,2469.914,2020-2-10T03:43:40Z
2020-02-10T01:46:09Z,42.805,6.029,13.2966,4.59967,2469.9,2020-2-10T03:46:44Z
2020-02-10T01:49:12Z,42.805,6.029,13.2968,4.59969,2469.876,2020-2-10T03:49:47Z
2020-02-10T01:52:15Z,42.805,6.029,13.2967,4.59968,2469.853,2020-2-10T03:52:50Z
2020-02-10T01:55:19Z,42.805,6.029,13.2969,4.59970,2469.853,2020-2-10T03:55:53Z
2020-02-10T01:58:22Z,42.805,6.029,13.2968,4.59968,2469.9,2020-2-10T03:58:56Z
2020-02-10T02:01:25Z,42.805,6.029,13.2969,4.59968,2469.914,2020-2-10T04:02:00Z
2020-02-10T02:04:28Z,42.805,6.029,13.2967,4.59968,2469.9,2020-2-10T04:05:03Z
2020-02-10T02:07:31Z,42.805,6.029,13.2965,4.59968,2469.9,2020-2-10T04:08:06Z
2020-02-10T02:10:35Z,42.805,6.029,13.2968,4.59968,2469.876,2020-2-10T04:11:09Z
2020-02-10T02:13:38Z,42.805,6.029,13.2965,4.59968,2469.9,2020-2-10T04:14:13Z
2020-02-10T02:16:41Z,42.805,6.029,13.2967,4.59968,2469.89,2020-2-10T04:17:16Z
2020-02-10T02:19:45Z,42.805,6.029,13.2969,4.59968,2469.89,2020-2-10T04:20:19Z
2020-02-10T02:22:48Z,42.805,6.029,13.2968,4.59968,2469.89,2020-2-10T04:23:22Z
2020-02-10T02:25:51Z,42.805,6.029,13.2967,4.59970,2469.9,2020-2-10T04:26:25Z
2020-02-10T02:28:54Z,42.805,6.029,13.2967,4.59979,2469.876,2020-2-10T04:29:29Z
2020-02-10T02:31:57Z,42.805,6.029,13.2969,4.59969,2469.853,2020-2-10T04:32:32Z
2020-02-10T02:35:00Z,42.805,6.029,13.2967,4.59968,2469.9,2020-2-10T04:35:35Z
2020-02-10T02:38:04Z,42.805,6.029,13.2967,4.59967,2469.89,2020-2-10T04:38:38Z
2020-02-10T02:41:07Z,42.805,6.029,13.2968,4.59969,2469.853,2020-2-10T04:41:41Z
2020-02-10T02:44:10Z,42.805,6.029,13.2970,4.59967,2469.876,2020-2-10T04:44:44Z
2020-02-10T02:47:13Z,42.805,6.029,13.2968,4.59968,2469.876,2020-2-10T04:47:48Z
2020-02-10T02:50:16Z,42.805,6.029,13.2969,4.59968,2469.914,2020-2-10T04:50:51Z
2020-02-10T02:53:20Z,42.805,6.029,13.2967,4.59968,2469.853,2020-2-10T04:53:54Z
2020-02-10T02:56:23Z,42.805,6.029,13.2969,4.59968,2469.9,2020-2-10T04:56:57Z
2020-02-10T02:59:26Z,42.805,6.029,13.2967,4.59976,2469.876,2020-2-10T05:00:00Z
2020-02-10T03:02:29Z,42.805,6.029,13.2963,4.59968,2469.89,2020-2-10T05:03:04Z
2020-02-10T03:05:32Z,42.805,6.029,13.2964,4.59967,2469.9,2020-2-10T05:06:07Z
2020-02-10T03:08:36Z,42.805,6.029,13.2968,4.59968,2469.9,2020-2-10T05:09:10Z
2020-02-10T03:11:39Z,42.805,6.029,13.2965,4.59970,2469.9,2020-2-10T05:12:13Z
2020-02-10T03:14:42Z,42.805,6.029,13.2963,4.59968,2469.9,2020-2-10T05:15:17Z
2020-02-10T03:17:45Z,42.805,6.029,13.2968,4.59968,2469.9,2020-2-10T05:18:20Z
2020-02-10T03:20:49Z,42.805,6.029,13.2968,4.59968,2469.9,2020-2-10T05:21:23Z
2020-02-10T03:23:52Z,42.805,6.029,13.2964,4.59968,2469.96,2020-2-10T05:24:26Z
2020-02-10T03:26:55Z,42.805,6.029,13.2965,4.59968,2469.876,2020-2-10T05:27:29Z
2020-02-10T03:29:58Z,42.805,6.029,13.2967,4.59968,2469.937,2020-2-10T05:30:33Z
2020-02-10T03:33:01Z,42.805,6.029,13.2967,4.59968,2469.923,2020-2-10T05:33:36Z
2020-02-10T03:36:05Z,42.805,6.029,13.2968,4.59967,2469.937,2020-2-10T05:36:39Z
2020-02-10T03:39:08Z,42.805,6.029,13.2967,4.59967,2469.937,2020-2-10T05:39:42Z
2020-02-10T03:42:11Z,42.805,6.029,13.2969,4.59967,2469.937,2020-2-10T05:42:46Z
2020-02-10T03:45:14Z,42.805,6.029,13.2966,4.59968,2469.937,2020-2-10T05:45:49Z
2020-02-10T03:48:17Z,42.805,6.029,13.2962,4.59967,2469.947,2020-2-10T05:48:52Z
2020-02-10T03:51:21Z,42.805,6.029,13.2966,4.59967,2469.96,2020-2-10T05:51:55Z
2020-02-10T03:54:24Z,42.805,6.029,13.2968,4.59968,2469.937,2020-2-10T05:54:58Z
2020-02-10T03:57:27Z,42.805,6.029,13.2967,4.59967,2469.937,2020-2-10T05:58:02Z
2020-02-10T04:00:30Z,42.805,6.029,13.2967,4.59967,2469.937,2020-2-10T06:01:05Z
2020-02-10T04:03:33Z,42.805,6.029,13.2964,4.59966,2469.947,2020-2-10T06:04:08Z
2020-02-10T04:06:37Z,42.805,6.029,13.2968,4.59968,2469.96,2020-2-10T06:07:11Z
2020-02-10T04:09:40Z,42.805,6.029,13.2968,4.59971,2469.97,2020-2-10T06:10:14Z
2020-02-10T04:12:43Z,42.805,6.029,13.2967,4.59966,2469.984,2020-2-10T06:13:18Z
2020-02-10T04:15:46Z,42.805,6.029,13.2973,4.59968,2470.007,2020-2-10T06:16:21Z
2020-02-10T04:18:49Z,42.805,6.029,13.2964,4.59968,2469.984,2020-2-10T06:19:24Z
2020-02-10T04:21:53Z,42.805,6.029,13.2967,4.59967,2469.97,2020-2-10T06:22:27Z
2020-02-10T04:24:56Z,42.805,6.029,13.2968,4.59967,2469.97,2020-2-10T06:25:30Z
2020-02-10T04:27:59Z,42.805,6.029,13.2967,4.59966,2469.993,2020-2-10T06:28:34Z
2020-02-10T04:31:02Z,42.805,6.029,13.2967,4.59967,2470.007,2020-2-10T06:31:37Z
2020-02-10T04:34:05Z,42.805,6.029,13.2968,4.59968,2470.017,2020-2-10T06:34:40Z
2020-02-10T04:37:09Z,42.805,6.029,13.2965,4.59968,2469.97,2020-2-10T06:37:43Z
2020-02-10T04:40:12Z,42.805,6.029,13.2966,4.59968,2469.97,2020-2-10T06:40:46Z
2020-02-10T04:43:15Z,42.805,6.029,13.2966,4.59970,2470.007,2020-2-10T06:43:50Z
2020-02-10T04:46:18Z,42.805,6.029,13.2967,4.59968,2469.993,2020-2-10T06:46:53Z
2020-02-10T04:49:22Z,42.805,6.029,13.2967,4.59968,2469.993,2020-2-10T06:49:56Z
2020-02-10T04:52:25Z,42.805,6.029,13.2972,4.59968,2469.97,2020-2-10T06:52:59Z
2020-02-10T04:55:28Z,42.805,6.029,13.2966,4.59968,2470.007,2020-2-10T06:56:02Z
2020-02-10T04:58:31Z,42.805,6.029,13.2966,4.59968,2470.03,2020-2-10T06:59:05Z
2020-02-10T05:01:34Z,42.805,6.029,13.2968,4.59968,2470.017,2020-2-10T07:02:09Z
2020-02-10T05:04:37Z,42.805,6.029,13.2970,4.59968,2470.007,2020-2-10T07:05:12Z
2020-02-10T05:07:41Z,42.805,6.029,13.2966,4.59975,2470.03,2020-2-10T07:08:15Z
2020-02-10T05:10:44Z,42.805,6.029,13.2971,4.59981,2470.053,2020-2-10T07:11:18Z
2020-02-10T05:13:47Z,42.805,6.029,13.2963,4.59969,2470.017,2020-2-10T07:14:22Z
2020-02-10T05:16:50Z,42.805,6.029,13.2967,4.59968,2470.053,2020-2-10T07:17:25Z
2020-02-10T05:19:53Z,42.805,6.029,13.2966,4.59969,2470.017,2020-2-10T07:20:28Z
2020-02-10T05:22:57Z,42.805,6.029,13.2969,4.59972,2470.04,2020-2-10T07:23:31Z
2020-02-10T05:26:00Z,42.805,6.029,13.2968,4.59968,2470.063,2020-2-10T07:26:34Z
2020-02-10T05:29:03Z,42.805,6.029,13.2966,4.59970,2470.04,2020-2-10T07:29:37Z
2020-02-10T05:32:06Z,42.805,6.029,13.2968,4.59967,2470.053,2020-2-10T07:32:41Z
2020-02-10T05:35:09Z,42.805,6.029,13.2963,4.59968,2470.063,2020-2-10T07:35:44Z
2020-02-10T05:38:13Z,42.805,6.029,13.2967,4.59966,2470.077,2020-2-10T07:38:47Z
2020-02-10T05:41:16Z,42.805,6.029,13.2964,4.59967,2470.077,2020-2-10T07:41:50Z
2020-02-10T05:44:19Z,42.805,6.029,13.2967,4.59967,2470.063,2020-2-10T07:44:54Z
2020-02-10T05:47:22Z,42.805,6.029,13.2964,4.59968,2470.087,2020-2-10T07:47:57Z
2020-02-10T05:50:25Z,42.805,6.029,13.2968,4.59968,2470.063,2020-2-10T07:51:00Z
2020-02-10T05:53:29Z,42.805,6.029,13.2966,4.59967,2470.087,2020-2-10T07:54:03Z
2020-02-10T05:56:32Z,42.805,6.029,13.2965,4.59971,2470.063,2020-2-10T07:57:06Z
2020-02-10T05:59:35Z,42.805,6.029,13.2963,4.59969,2470.087,2020-2-10T08:00:09Z
2020-02-10T06:02:38Z,42.805,6.029,13.2963,4.59968,2470.11,2020-2-10T08:03:13Z
2020-02-10T06:05:41Z,42.805,6.029,13.2967,4.59969,2470.04,2020-2-10T08:06:16Z
2020-02-10T06:08:45Z,42.805,6.029,13.2967,4.59966,2470.087,2020-2-10T08:09:19Z
2020-02-10T06:11:48Z,42.805,6.029,13.2964,4.59968,2470.1,2020-2-10T08:12:22Z
2020-02-10T06:14:51Z,42.805,6.029,13.2967,4.59970,2470.124,2020-2-10T08:15:25Z
2020-02-10T06:17:54Z,42.805,6.029,13.2967,4.59969,2470.147,2020-2-10T08:18:29Z
2020-02-10T06:20:57Z,42.805,6.029,13.2967,4.59969,2470.11,2020-2-10T08:21:32Z
2020-02-10T06:24:00Z,42.805,6.029,13.2965,4.59969,2470.147,2020-2-10T08:24:35Z
2020-02-10T06:27:04Z,42.805,6.029,13.2966,4.59971,2470.124,2020-2-10T08:27:38Z
2020-02-10T06:30:07Z,42.805,6.029,13.2964,4.59971,2470.133,2020-2-10T08:30:41Z
2020-02-10T06:33:10Z,42.805,6.029,13.2964,4.59969,2470.156,2020-2-10T08:33:44Z
2020-02-10T06:36:13Z,42.805,6.029,13.2966,4.59978,2470.11,2020-2-10T08:36:48Z
2020-02-10T06:39:16Z,42.805,6.029,13.2963,4.59967,2470.11,2020-2-10T08:39:51Z
2020-02-10T06:42:20Z,42.805,6.029,13.2971,4.59968,2470.11,2020-2-10T08:42:54Z
2020-02-10T06:45:23Z,42.805,6.029,13.2969,4.59971,2470.147,2020-2-10T08:45:57Z
2020-02-10T06:48:26Z,42.805,6.029,13.2965,4.59968,2470.147,2020-2-10T08:49:01Z
2020-02-10T06:51:29Z,42.805,6.029,13.2966,4.59968,2470.133,2020-2-10T08:52:04Z
2020-02-10T06:54:32Z,42.805,6.029,13.2965,4.59967,2470.156,2020-2-10T08:55:07Z
2020-02-10T06:57:36Z,42.805,6.029,13.2964,4.59967,2470.156,2020-2-10T08:58:10Z
2020-02-10T07:00:39Z,42.805,6.029,13.2968,4.59969,2470.171,2020-2-10T09:01:13Z
2020-02-10T07:03:42Z,42.805,6.029,13.2968,4.59968,2470.156,2020-2-10T09:04:16Z
2020-02-10T07:06:45Z,42.805,6.029,13.2964,4.59968,2470.171,2020-2-10T09:07:20Z
2020-02-10T07:09:48Z,42.805,6.029,13.2965,4.59975,2470.156,2020-2-10T09:10:23Z
2020-02-10T07:12:52Z,42.805,6.029,13.2964,4.59967,2470.156,2020-2-10T09:13:26Z
2020-02-10T07:15:55Z,42.805,6.029,13.2966,4.59967,2470.18,2020-2-10T09:16:29Z
2020-02-10T07:18:58Z,42.805,6.029,13.2966,4.59969,2470.18,2020-2-10T09:19:33Z
2020-02-10T07:22:01Z,42.805,6.029,13.2968,4.59969,2470.194,2020-2-10T09:22:36Z
2020-02-10T07:25:05Z,42.805,6.029,13.2968,4.59967,2470.18,2020-2-10T09:25:39Z
2020-02-10T07:28:08Z,42.805,6.029,13.2968,4.59975,2470.156,2020-2-10T09:28:42Z
2020-02-10T07:31:11Z,42.805,6.029,13.2967,4.59970,2470.171,2020-2-10T09:31:45Z
2020-02-10T07:34:14Z,42.805,6.029,13.2967,4.59968,2470.156,2020-2-10T09:34:49Z
2020-02-10T07:37:17Z,42.805,6.029,13.2968,4.59966,2470.156,2020-2-10T09:37:52Z
2020-02-10T07:40:21Z,42.805,6.029,13.2965,4.59968,2470.18,2020-2-10T09:40:55Z
2020-02-10T07:43:24Z,42.805,6.029,13.2967,4.59968,2470.18,2020-2-10T09:43:58Z
2020-02-10T07:46:27Z,42.805,6.029,13.2969,4.59967,2470.156,2020-2-10T09:47:01Z
2020-02-10T07:49:30Z,42.805,6.029,13.2967,4.59967,2470.227,2020-2-10T09:50:05Z
2020-02-10T07:52:33Z,42.805,6.029,13.2969,4.59968,2470.203,2020-2-10T09:53:08Z
2020-02-10T07:55:37Z,42.805,6.029,13.2967,4.59968,2470.18,2020-2-10T09:56:11Z
2020-02-10T07:58:40Z,42.805,6.029,13.2967,4.59966,2470.156,2020-2-10T09:59:14Z
2020-02-10T08:01:43Z,42.805,6.029,13.2968,4.59967,2470.194,2020-2-10T10:02:17Z
2020-02-10T08:04:46Z,42.805,6.029,13.2968,4.59969,2470.166,2020-2-10T10:05:21Z
2020-02-10T08:07:49Z,42.805,6.029,13.2964,4.59970,2470.156,2020-2-10T10:08:24Z
2020-02-10T08:10:53Z,42.805,6.029,13.2965,4.59967,2470.156,2020-2-10T10:11:27Z
2020-02-10T08:13:56Z,42.805,6.029,13.2968,4.59968,2470.203,2020-2-10T10:14:30Z
2020-02-10T08:16:59Z,42.805,6.029,13.2964,4.59968,2470.18,2020-2-10T10:17:34Z
2020-02-10T08:20:02Z,42.805,6.029,13.2967,4.59968,2470.156,2020-2-10T10:20:37Z
2020-02-10T08:23:05Z,42.805,6.029,13.2965,4.59968,2470.171,2020-2-10T10:23:40Z
2020-02-10T08:26:09Z,42.805,6.029,13.2964,4.59967,2470.18,2020-2-10T10:26:43Z
2020-02-10T08:29:12Z,42.805,6.029,13.2967,4.59967,2470.143,2020-2-10T10:29:46Z
2020-02-10T08:32:15Z,42.805,6.029,13.2965,4.59968,2470.203,2020-2-10T10:32:50Z
2020-02-10T08:35:18Z,42.805,6.029,13.2968,4.59968,2470.156,2020-2-10T10:35:53Z
2020-02-10T08:38:22Z,42.805,6.029,13.2967,4.59969,2470.171,2020-2-10T10:38:56Z
2020-02-10T08:41:25Z,42.805,6.029,13.2966,4.59968,2470.156,2020-2-10T10:41:59Z
2020-02-10T08:44:28Z,42.805,6.029,13.2964,4.59968,2470.156,2020-2-10T10:45:02Z
2020-02-10T08:47:31Z,42.805,6.029,13.2966,4.59966,2470.171,2020-2-10T10:48:06Z
2020-02-10T08:50:34Z,42.805,6.029,13.2972,4.59967,2470.133,2020-2-10T10:51:09Z
2020-02-10T08:53:38Z,42.805,6.029,13.2967,4.59973,2470.124,2020-2-10T10:54:12Z
2020-02-10T08:56:41Z,42.805,6.029,13.2967,4.59972,2470.133,2020-2-10T10:57:15Z
2020-02-10T08:59:44Z,42.805,6.029,13.2968,4.59968,2470.147,2020-2-10T11:00:18Z
2020-02-10T09:02:47Z,42.805,6.029,13.2964,4.59967,2470.166,2020-2-10T11:03:22Z
2020-02-10T09:05:50Z,42.805,6.029,13.2965,4.59967,2470.156,2020-2-10T11:06:25Z
2020-02-10T09:08:54Z,42.805,6.029,13.2966,4.59968,2470.156,2020-2-10T11:09:28Z
2020-02-10T09:11:57Z,42.805,6.029,13.2967,4.59968,2470.156,2020-2-10T11:12:31Z
2020-02-10T09:15:00Z,42.805,6.029,13.2967,4.59970,2470.147,2020-2-10T11:15:34Z
2020-02-10T09:18:03Z,42.805,6.029,13.2964,4.59968,2470.156,2020-2-10T11:18:38Z
2020-02-10T09:21:06Z,42.805,6.029,13.2968,4.59966,2470.156,2020-2-10T11:21:41Z
2020-02-10T09:24:10Z,42.805,6.029,13.2967,4.59968,2470.156,2020-2-10T11:24:44Z
2020-02-10T09:27:13Z,42.805,6.029,13.2965,4.59968,2470.18,2020-2-10T11:27:47Z
2020-02-10T09:30:16Z,42.805,6.029,13.2964,4.59968,2470.147,2020-2-10T11:30:50Z
2020-02-10T09:33:19Z,42.805,6.029,13.2966,4.59968,2470.171,2020-2-10T11:33:54Z
2020-02-10T09:36:22Z,42.805,6.029,13.2968,4.59968,2470.133,2020-2-10T11:36:57Z
2020-02-10T09:39:26Z,42.805,6.029,13.2965,4.59967,2470.147,2020-2-10T11:40:00Z
2020-02-10T09:42:29Z,42.805,6.029,13.2968,4.59967,2470.133,2020-2-10T11:43:03Z
2020-02-10T09:45:32Z,42.805,6.029,13.2968,4.59968,2470.156,2020-2-10T11:46:07Z
2020-02-10T09:48:35Z,42.805,6.029,13.2966,4.59968,2470.156,2020-2-10T11:49:10Z
2020-02-10T09:51:39Z,42.805,6.029,13.2965,4.59968,2470.156,2020-2-10T11:52:13Z
2020-02-10T09:54:42Z,42.805,6.029,13.2964,4.59968,2470.133,2020-2-10T11:55:16Z
2020-02-10T09:57:45Z,42.805,6.029,13.2964,4.59966,2470.11,2020-2-10T11:58:19Z
2020-02-10T10:00:48Z,42.805,6.029,13.2967,4.59966,2470.133,2020-2-10T12:01:23Z
2020-02-10T10:03:51Z,42.805,6.029,13.2968,4.59967,2470.194,2020-2-10T12:04:26Z
2020-02-10T10:06:55Z,42.805,6.029,13.2965,4.59967,2470.171,2020-2-10T12:07:29Z
2020-02-10T10:09:58Z,42.805,6.029,13.2966,4.59971,2470.124,2020-2-10T12:10:32Z
2020-02-10T10:13:01Z,42.805,6.029,13.2968,4.59970,2470.156,2020-2-10T12:13:36Z
2020-02-10T10:16:04Z,42.805,6.029,13.2964,4.59967,2470.1,2020-2-10T12:16:39Z
2020-02-10T10:19:08Z,42.805,6.029,13.2968,4.59967,2470.11,2020-2-10T12:19:42Z
2020-02-10T10:22:11Z,42.805,6.029,13.2961,4.59968,2470.156,2020-2-10T12:22:45Z
2020-02-10T10:25:14Z,42.805,6.029,13.2962,4.59971,2470.11,2020-2-10T12:25:48Z
2020-02-10T10:28:17Z,42.805,6.029,13.2966,4.59969,2470.124,2020-2-10T12:28:52Z
2020-02-10T10:31:20Z,42.805,6.029,13.2966,4.59967,2470.133,2020-2-10T12:31:55Z
2020-02-10T10:34:24Z,42.805,6.029,13.2963,4.59973,2470.11,2020-2-10T12:34:58Z
2020-02-10T10:37:27Z,42.805,6.029,13.2964,4.59968,2470.124,2020-2-10T12:38:01Z
2020-02-10T10:40:30Z,42.805,6.029,13.2968,4.59966,2470.124,2020-2-10T12:41:05Z
2020-02-10T10:43:33Z,42.805,6.029,13.2964,4.59966,2470.11,2020-2-10T12:44:08Z
2020-02-10T10:46:37Z,42.805,6.029,13.2964,4.59968,2470.11,2020-2-10T12:47:11Z
2020-02-10T10:49:40Z,42.805,6.029,13.2967,4.59967,2470.133,2020-2-10T12:50:14Z
2020-02-10T10:52:43Z,42.805,6.029,13.2964,4.59968,2470.1,2020-2-10T12:53:18Z
2020-02-10T10:55:46Z,42.805,6.029,13.2967,4.59968,2470.133,2020-2-10T12:56:21Z
2020-02-10T10:58:50Z,42.805,6.029,13.2967,4.59969,2470.124,2020-2-10T12:59:24Z
2020-02-10T11:01:53Z,42.805,6.029,13.2964,4.59968,2470.1,2020-2-10T13:02:27Z
2020-02-10T11:04:56Z,42.805,6.029,13.2964,4.59968,2470.063,2020-2-10T13:05:31Z
2020-02-10T11:07:59Z,42.805,6.029,13.2965,4.59970,2470.124,2020-2-10T13:08:34Z
2020-02-10T11:11:02Z,42.805,6.029,13.2967,4.59968,2470.11,2020-2-10T13:11:37Z
2020-02-10T11:14:06Z,42.805,6.029,13.2967,4.59966,2470.11,2020-2-10T13:14:40Z
2020-02-10T11:17:09Z,42.805,6.029,13.2965,4.59966,2470.063,2020-2-10T13:17:43Z
2020-02-10T11:20:12Z,42.805,6.029,13.2964,4.59969,2470.087,2020-2-10T13:20:46Z
2020-02-10T11:23:15Z,42.805,6.029,13.2964,4.59967,2470.1,2020-2-10T13:23:50Z
2020-02-10T11:26:19Z,42.805,6.029,13.2966,4.59968,2470.087,2020-2-10T13:26:53Z
2020-02-10T11:29:22Z,42.805,6.029,13.2964,4.59966,2470.11,2020-2-10T13:29:56Z
2020-02-10T11:32:25Z,42.805,6.029,13.2964,4.59966,2470.077,2020-2-10T13:32:59Z
2020-02-10T11:35:28Z,42.805,6.029,13.2963,4.59966,2470.087,2020-2-10T13:36:03Z
2020-02-10T11:38:31Z,42.805,6.029,13.2965,4.59968,2470.087,2020-2-10T13:39:06Z
2020-02-10T11:41:35Z,42.805,6.029,13.2965,4.59968,2470.087,2020-2-10T13:42:09Z
2020-02-10T11:44:38Z,42.805,6.029,13.2965,4.59967,2470.1,2020-2-10T13:45:12Z
2020-02-10T11:47:41Z,42.805,6.029,13.2965,4.59968,2470.077,2020-2-10T13:48:16Z
2020-02-10T11:50:44Z,42.805,6.029,13.2968,4.59969,2470.04,2020-2-10T13:51:19Z
2020-02-10T11:53:48Z,42.805,6.029,13.2968,4.59968,2470.04,2020-2-10T13:54:22Z
2020-02-10T11:56:51Z,42.805,6.029,13.2967,4.59966,2470.077,2020-2-10T13:57:25Z
2020-02-10T11:59:54Z,42.805,6.029,13.2964,4.59966,2470.063,2020-2-10T14:00:28Z
2020-02-10T12:02:57Z,42.805,6.029,13.2964,4.59968,2470.087,2020-2-10T14:03:32Z
2020-02-10T12:06:00Z,42.805,6.029,13.2964,4.59966,2470.017,2020-2-10T14:06:35Z
2020-02-10T12:09:04Z,42.805,6.029,13.2966,4.59967,2470.017,2020-2-10T14:09:38Z
2020-02-10T12:12:07Z,42.805,6.029,13.2967,4.59967,2470.017,2020-2-10T14:12:41Z
2020-02-10T12:15:10Z,42.805,6.029,13.2967,4.59966,2470.017,2020-2-10T14:15:44Z
2020-02-10T12:18:13Z,42.805,6.029,13.2966,4.59967,2469.993,2020-2-10T14:18:48Z
2020-02-10T12:21:16Z,42.805,6.029,13.2964,4.59966,2470.017,2020-2-10T14:21:51Z
2020-02-10T12:24:20Z,42.805,6.029,13.2963,4.59971,2470.017,2020-2-10T14:24:54Z
2020-02-10T12:27:23Z,42.805,6.029,13.2966,4.59967,2469.947,2020-2-10T14:27:57Z
2020-02-10T12:30:26Z,42.805,6.029,13.2968,4.59966,2470.03,2020-2-10T14:31:01Z
2020-02-10T12:33:29Z,42.805,6.029,13.2967,4.59966,2470.007,2020-2-10T14:34:04Z
2020-02-10T12:36:32Z,42.805,6.029,13.2962,4.59968,2469.97,2020-2-10T14:37:07Z
2020-02-10T12:39:36Z,42.805,6.029,13.2965,4.59968,2469.947,2020-2-10T14:40:10Z
2020-02-10T12:42:39Z,42.805,6.029,13.2964,4.59971,2470.007,2020-2-10T14:43:13Z
2020-02-10T12:45:42Z,42.805,6.029,13.2964,4.59966,2470.017,2020-2-10T14:46:17Z
2020-02-10T12:48:45Z,42.805,6.029,13.2966,4.59966,2469.97,2020-2-10T14:49:20Z
2020-02-10T12:51:49Z,42.805,6.029,13.2965,4.59966,2469.97,2020-2-10T14:52:23Z
2020-02-10T12:54:52Z,42.805,6.029,13.2967,4.59969,2469.97,2020-2-10T14:55:26Z
2020-02-10T12:57:55Z,42.805,6.029,13.2964,4.59969,2469.984,2020-2-10T14:58:30Z
2020-02-10T13:00:58Z,42.805,6.029,13.2967,4.59968,2469.97,2020-2-10T15:01:33Z
2020-02-10T13:04:02Z,42.805,6.029,13.2967,4.59967,2469.96,2020-2-10T15:04:36Z
2020-02-10T13:07:05Z,42.805,6.029,13.2964,4.59967,2469.956,2020-2-10T15:07:39Z
2020-02-10T13:10:08Z,42.805,6.029,13.2969,4.59967,2469.97,2020-2-10T15:10:43Z
2020-02-10T13:13:11Z,42.805,6.029,13.2965,4.59968,2469.937,2020-2-10T15:13:46Z
2020-02-10T13:16:14Z,42.805,6.029,13.2964,4.59966,2469.96,2020-2-10T15:16:49Z
2020-02-10T13:19:18Z,42.805,6.029,13.2966,4.59967,2469.96,2020-2-10T15:19:52Z
2020-02-10T13:22:21Z,42.805,6.029,13.2964,4.59971,2469.947,2020-2-10T15:22:55Z
2020-02-10T13:25:24Z,42.805,6.029,13.2968,4.59967,2469.984,2020-2-10T15:25:59Z
2020-02-10T13:28:27Z,42.805,6.029,13.2964,4.59968,2469.96,2020-2-10T15:29:02Z
2020-02-10T13:31:31Z,42.805,6.029,13.2960,4.59967,2469.97,2020-2-10T15:32:05Z
2020-02-10T13:34:34Z,42.805,6.029,13.2965,4.59966,2469.947,2020-2-10T15:35:08Z
2020-02-10T13:37:37Z,42.805,6.029,13.2967,4.59965,2469.937,2020-2-10T15:38:11Z
2020-02-10T13:40:40Z,42.805,6.029,13.2964,4.59966,2469.96,2020-2-10T15:41:15Z
2020-02-10T13:43:43Z,42.805,6.029,13.2965,4.59969,2469.97,2020-2-10T15:44:18Z
2020-02-10T13:46:47Z,42.805,6.029,13.2964,4.59969,2469.993,2020-2-10T15:47:21Z
2020-02-10T13:49:50Z,42.805,6.029,13.2967,4.59966,2469.914,2020-2-10T15:50:24Z
2020-02-10T13:52:53Z,42.805,6.029,13.2967,4.59966,2469.923,2020-2-10T15:53:28Z
2020-02-10T13:55:56Z,42.805,6.029,13.2966,4.59966,2469.9,2020-2-10T15:56:31Z
2020-02-10T13:59:00Z,42.805,6.029,13.2967,4.59967,2469.923,2020-2-10T15:59:34Z
2020-02-10T14:02:03Z,42.805,6.029,13.2968,4.59966,2469.923,2020-2-10T16:02:37Z
2020-02-10T14:05:06Z,42.805,6.029,13.2964,4.59967,2469.923,2020-2-10T16:05:41Z
2020-02-10T14:08:09Z,42.805,6.029,13.2962,4.59968,2469.923,2020-2-10T16:08:44Z
2020-02-10T14:11:13Z,42.805,6.029,13.2965,4.59969,2469.876,2020-2-10T16:11:47Z
2020-02-10T14:14:16Z,42.805,6.029,13.2966,4.59966,2469.9,2020-2-10T16:14:50Z
2020-02-10T14:17:19Z,42.805,6.029,13.2967,4.59966,2469.909,2020-2-10T16:17:54Z
2020-02-10T14:20:22Z,42.805,6.029,13.2967,4.59966,2469.9,2020-2-10T16:20:57Z
2020-02-10T14:23:25Z,42.805,6.029,13.2965,4.59966,2469.9,2020-2-10T16:24:00Z
2020-02-10T14:26:29Z,42.805,6.029,13.2964,4.59967,2469.914,2020-2-10T16:27:03Z
2020-02-10T14:29:32Z,42.805,6.029,13.2967,4.59966,2469.937,2020-2-10T16:30:06Z
2020-02-10T14:32:35Z,42.805,6.029,13.2964,4.59971,2469.9,2020-2-10T16:33:09Z
2020-02-10T14:35:38Z,42.805,6.029,13.2963,4.59966,2469.914,2020-2-10T16:36:13Z
2020-02-10T14:38:42Z,42.805,6.029,13.2964,4.59967,2469.867,2020-2-10T16:39:16Z
2020-02-10T14:41:45Z,42.805,6.029,13.2965,4.59968,2469.89,2020-2-10T16:42:19Z
2020-02-10T14:44:48Z,42.805,6.029,13.2963,4.59966,2469.937,2020-2-10T16:45:23Z
2020-02-10T14:47:51Z,42.805,6.029,13.2965,4.59966,2469.876,2020-2-10T16:48:26Z
2020-02-10T14:50:55Z,42.805,6.029,13.2969,4.59966,2469.9,2020-2-10T16:51:29Z
2020-02-10T14:53:58Z,42.805,6.029,13.2967,4.59966,2469.89,2020-2-10T16:54:32Z
2020-02-10T14:57:01Z,42.805,6.029,13.2967,4.59966,2469.9,2020-2-10T16:57:35Z
2020-02-10T15:00:04Z,42.805,6.029,13.2964,4.59966,2469.9,2020-2-10T17:00:39Z
2020-02-10T15:03:07Z,42.805,6.029,13.2965,4.59967,2469.914,2020-2-10T17:03:42Z
2020-02-10T15:06:11Z,42.805,6.029,13.2965,4.59966,2469.9,2020-2-10T17:06:45Z
2020-02-10T15:09:14Z,42.805,6.029,13.2964,4.59966,2469.937,2020-2-10T17:09:48Z
2020-02-10T15:12:17Z,42.805,6.029,13.2964,4.59964,2469.937,2020-2-10T17:12:52Z
2020-02-10T15:15:20Z,42.805,6.029,13.2962,4.59967,2469.89,2020-2-10T17:15:55Z